| time (UTC) | temp F | wind direction | speed MPH | gust MPH | rain 1hr in | rain 24hr in | rain mn in | humidity % | barometer mb |
| 20260506024002 | 46 | 60 | 1.0 | 5.0 | 0.10 | 1.16 | 1.16 | 1009.5 | |
| 20260506023502 | 0 | 72 | 1.0 | 5.0 | 0.10 | 1.16 | 1.16 | 1009.5 | |
| 20260506023003 | 46 | 51 | 1.0 | 5.0 | 0.11 | 1.16 | 1.16 | 1009.4 | |
| 20260506022503 | 46 | 58 | 2.0 | 3.0 | 0.10 | 1.14 | 1.14 | 1009.7 | |
| 20260506022002 | 0 | 51 | 1.0 | 3.0 | 0.09 | 1.13 | 1.13 | 95 | 1009.9 |
| 20260506021502 | 0 | 32 | 1.0 | 3.0 | 0.09 | 1.12 | 1.12 | 1 | 1009.8 |
| 20260506021003 | 0 | 30 | 2.0 | 3.0 | 0.08 | 1.10 | 1.10 | 1009.7 | |
| 20260506020502 | 46 | 10 | 1.0 | 4.0 | 0.09 | 1.09 | 1.09 | 1 | 1009.7 |
| 20260506020006 | 46 | 52 | 2.0 | 4.0 | 0.10 | 1.09 | 1.09 | 1009.3 | |
| 20260506015503 | 0 | 41 | 1.0 | 4.0 | 0.10 | 1.08 | 1.08 | 1009.0 | |
| 20260506014502 | 0 | 11 | 2.0 | 4.0 | 0.11 | 1.07 | 1.07 | 1009.0 | |
| 20260506014002 | 46 | 30 | 1.0 | 6.0 | 0.11 | 1.06 | 1.06 | 95 | 1008.9 |
| 20260506013502 | 46 | 51 | 3.0 | 6.0 | 0.11 | 1.05 | 1.05 | 95 | 1008.6 |
| 20260506013002 | 0 | 52 | 3.0 | 5.0 | 0.11 | 1.04 | 1.04 | 1008.6 | |
| 20260506012503 | 46 | 46 | 1.0 | 3.0 | 0.11 | 1.04 | 1.04 | 95 | 1008.7 |
| 20260506012002 | 0 | 60 | 2.0 | 4.0 | 0.11 | 1.03 | 1.03 | 1 | 1008.6 |
| 20260506011502 | 46 | 44 | 2.0 | 4.0 | 0.10 | 1.02 | 1.02 | 95 | 1008.5 |
| 20260506011002 | 0 | 61 | 2.0 | 3.0 | 0.09 | 1.01 | 1.01 | 95 | 1008.4 |
| 20260506010503 | 0 | 59 | 1.0 | 3.0 | 0.08 | 1.00 | 1.00 | 1 | 1008.6 |
| 20260506010005 | 0 | 49 | 0.0 | 1.0 | 0.08 | 0.99 | 0.99 | 1008.7 | |
| 20260506005504 | 0 | 44 | 0.0 | 2.0 | 0.07 | 0.97 | 0.97 | 1008.9 | |
| 20260506005003 | 0 | 44 | 0.0 | 2.0 | 0.09 | 0.97 | 0.97 | 1009.0 | |
| 20260506003502 | 0 | 54 | 1.0 | 2.0 | 0.07 | 0.94 | 0.94 | 1009.0 | |
| 20260506003002 | 0 | 70 | 0.0 | 1.0 | 0.07 | 0.93 | 0.93 | 1008.9 | |
| 20260506002503 | 46 | 70 | 0.0 | 2.0 | 0.08 | 0.93 | 0.93 | 1 | 1009.0 |
| 20260506002002 | 0 | 70 | 1.0 | 2.0 | 0.07 | 0.92 | 0.92 | 94 | 1008.9 |
| 20260506001502 | 0 | 68 | 1.0 | 2.0 | 0.08 | 0.92 | 0.92 | 1008.7 | |
| 20260506001004 | 0 | 76 | 1.0 | 3.0 | 0.08 | 0.92 | 0.92 | 94 | 1008.6 |
| 20260506000503 | 0 | 74 | 1.0 | 3.0 | 0.08 | 0.91 | 0.91 | 1 | 1008.6 |
| 20260506000004 | 0 | 127 | 0.0 | 1.0 | 0.08 | 0.91 | 0.91 | 1008.8 | |
| 20260505235501 | 46 | 135 | 0.0 | 1.0 | 0.06 | 0.89 | 0.89 | 1009.0 | |
| 20260505235003 | 0 | 45 | 0.0 | 2.0 | 0.06 | 0.88 | 0.88 | 1008.9 | |
| 20260505234501 | 0 | 44 | 0.0 | 3.0 | 0.06 | 0.88 | 0.88 | 1008.7 | |
| 20260505234002 | 0 | 62 | 2.0 | 3.0 | 0.06 | 0.87 | 0.87 | 1008.6 | |
| 20260505233501 | 46 | 34 | 2.0 | 3.0 | 0.06 | 0.87 | 0.87 | 1 | 1008.6 |
| 20260505233002 | 0 | 23 | 1.0 | 5.0 | 0.06 | 0.86 | 0.86 | 1008.6 | |
| 20260505232501 | 0 | 49 | 3.0 | 4.0 | 0.05 | 0.85 | 0.85 | 1008.5 | |
| 20260505231003 | 46 | 11 | 2.0 | 4.0 | 0.05 | 0.84 | 0.84 | 1009.0 | |
| 20260505225502 | 0 | 21 | 1.0 | 3.0 | 0.05 | 0.82 | 0.82 | 1009.2 | |
| 20260505225004 | 0 | 36 | 1.0 | 3.0 | 0.05 | 0.82 | 0.82 | 1009.3 | |
| 20260505224501 | 0 | 354 | 1.0 | 5.0 | 0.06 | 0.82 | 0.82 | 1009.2 | |
| 20260505224001 | 0 | 24 | 2.0 | 5.0 | 0.05 | 0.81 | 0.81 | 1009.2 | |
| 20260505223501 | 0 | 45 | 3.0 | 5.0 | 0.06 | 0.81 | 0.81 | 1009.2 | |
| 20260505223002 | 0 | 60 | 2.0 | 6.0 | 0.05 | 0.80 | 0.80 | 1009.3 | |
| 20260505222503 | 0 | 28 | 2.0 | 6.0 | 0.06 | 0.80 | 0.80 | 1009.4 | |
| 20260505222001 | 0 | 37 | 2.0 | 6.0 | 0.06 | 0.80 | 0.80 | 1009.3 | |
| 20260505221500 | 0 | 333 | 1.0 | 5.0 | 0.05 | 0.79 | 0.79 | 1009.5 | |
| 20260505221002 | 0 | 336 | 3.0 | 7.0 | 0.05 | 0.79 | 0.79 | 1009.3 | |
| 20260505220502 | 0 | 44 | 3.0 | 9.0 | 0.04 | 0.78 | 0.78 | 1009.3 | |
| 20260505220004 | 0 | 36 | 4.0 | 11.0 | 0.04 | 0.78 | 0.78 | 1009.3 | |
| 20260505215501 | 0 | 49 | 6.0 | 11.0 | 0.03 | 0.77 | 0.77 | 1009.3 | |
| 20260505215001 | 0 | 54 | 6.0 | 10.0 | 0.03 | 0.77 | 0.77 | 1009.3 | |
| 20260505214501 | 0 | 15 | 6.0 | 10.0 | 0.02 | 0.76 | 0.76 | 1009.3 | |
| 20260505214002 | 0 | 13 | 6.0 | 10.0 | 0.02 | 0.76 | 0.76 | 1009.3 | |
| 20260505213501 | 0 | 15 | 7.0 | 10.0 | 0.02 | 0.75 | 0.75 | 1009.3 | |
| 20260505212501 | 0 | 34 | 5.0 | 13.0 | 0.01 | 0.74 | 0.74 | 1009.3 | |
| 20260505212003 | 0 | 18 | 6.0 | 13.0 | 0.01 | 0.74 | 0.74 | 1009.2 | |
| 20260505211501 | 47 | 352 | 5.0 | 9.0 | 0.01 | 0.74 | 0.74 | 93 | 1009.2 |
| 20260505211001 | 0 | 360 | 4.0 | 7.0 | 0.01 | 0.74 | 0.74 | 1009.1 | |
| 20260505210503 | 0 | 340 | 3.0 | 7.0 | 0.01 | 0.74 | 0.74 | 1009.0 | |
| 20260505205502 | 0 | 28 | 5.0 | 10.0 | 0.02 | 0.74 | 0.74 | 1009.0 | |
| 20260505204002 | 0 | 38 | 5.0 | 9.0 | 0.02 | 0.74 | 0.74 | 1009.2 | |
| 20260505203501 | 0 | 4 | 5.0 | 10.0 | 0.01 | 0.73 | 0.73 | 1009.2 | |
| 20260505203001 | 0 | 360 | 5.0 | 9.0 | 0.01 | 0.73 | 0.73 | 1009.0 | |
| 20260505202502 | 0 | 336 | 3.0 | 7.0 | 0.01 | 0.73 | 0.73 | 1009.0 | |
| 20260505202002 | 0 | 309 | 4.0 | 7.0 | 0.01 | 0.73 | 0.73 | 1008.9 | |
| 20260505201501 | 0 | 338 | 4.0 | 7.0 | 0.02 | 0.73 | 0.73 | 1008.9 | |
| 20260505201002 | 0 | 328 | 2.0 | 9.0 | 0.02 | 0.73 | 0.73 | 1008.8 | |
| 20260505200501 | 0 | 345 | 5.0 | 10.0 | 0.02 | 0.73 | 0.73 | 1008.6 | |
| 20260505200004 | 0 | 14 | 5.0 | 10.0 | 0.01 | 0.72 | 0.72 | 1008.6 | |
| 20260505195501 | 0 | 341 | 4.0 | 7.0 | 0.02 | 0.72 | 0.72 | 1008.6 | |
| 20260505194002 | 0 | 14 | 4.0 | 7.0 | 0.02 | 0.72 | 0.72 | 1008.4 | |
| 20260505193501 | 0 | 5 | 5.0 | 8.0 | 0.02 | 0.72 | 0.72 | 1008.3 | |
| 20260505193001 | 0 | 34 | 4.0 | 8.0 | 0.03 | 0.72 | 0.72 | 1008.3 | |
| 20260505192501 | 0 | 345 | 4.0 | 8.0 | 0.03 | 0.72 | 0.72 | 1008.4 | |
| 20260505192002 | 0 | 15 | 5.0 | 8.0 | 0.04 | 0.72 | 0.72 | 1008.4 | |
| 20260505191001 | 0 | 57 | 3.0 | 7.0 | 0.04 | 0.71 | 0.71 | 1008.3 | |
| 20260505190501 | 0 | 39 | 4.0 | 8.0 | 0.05 | 0.71 | 0.71 | 1008.2 | |
| 20260505190006 | 0 | 49 | 5.0 | 8.0 | 0.06 | 0.71 | 0.71 | 1008.0 | |
| 20260505185501 | 0 | 11 | 4.0 | 6.0 | 0.06 | 0.70 | 0.70 | 1008.1 | |
| 20260505185001 | 0 | 42 | 2.0 | 5.0 | 0.07 | 0.70 | 0.70 | 1008.2 | |
| 20260505184502 | 0 | 51 | 3.0 | 4.0 | 0.08 | 0.70 | 0.70 | 1008.3 | |
| 20260505184002 | 0 | 79 | 3.0 | 4.0 | 0.09 | 0.70 | 0.70 | 1008.3 | |
| 20260505183501 | 0 | 51 | 2.0 | 4.0 | 0.10 | 0.70 | 0.70 | 1008.4 | |
| 20260505183001 | 0 | 62 | 1.0 | 5.0 | 0.10 | 0.69 | 0.69 | 1008.5 | |
| 20260505182004 | 0 | 73 | 2.0 | 4.0 | 0.11 | 0.68 | 0.68 | 1008.8 | |
| 20260505181501 | 0 | 60 | 2.0 | 4.0 | 0.11 | 0.67 | 0.67 | 1008.9 | |
| 20260505181001 | 0 | 41 | 3.0 | 4.0 | 0.10 | 0.66 | 0.66 | 1008.9 | |
| 20260505180501 | 0 | 46 | 2.0 | 3.0 | 0.11 | 0.66 | 0.66 | 1008.8 | |
| 20260505180004 | 0 | 48 | 2.0 | 3.0 | 0.11 | 0.65 | 0.65 | 1008.8 | |
| 20260505175001 | 0 | 38 | 1.0 | 2.0 | 0.09 | 0.63 | 0.63 | 1008.9 | |
| 20260505174501 | 0 | 80 | 1.0 | 2.0 | 0.09 | 0.62 | 0.62 | 1009.0 | |
| 20260505173501 | 0 | 41 | 1.0 | 4.0 | 0.07 | 0.60 | 0.60 | 89 | 1009.1 |
| 20260505173003 | 49 | 41 | 1.0 | 4.0 | 0.06 | 0.59 | 0.59 | 89 | 1009.1 |
| 20260505172501 | 49 | 67 | 1.0 | 2.0 | 0.06 | 0.58 | 0.58 | 88 | 1009.2 |
| 20260505172002 | 0 | 68 | 1.0 | 3.0 | 0.05 | 0.57 | 0.57 | 1 | 1009.1 |
| 20260505171501 | 0 | 47 | 2.0 | 3.0 | 0.04 | 0.56 | 0.56 | 87 | 1008.9 |
| 20260505171002 | 50 | 38 | 0.0 | 1.0 | 0.03 | 0.55 | 0.55 | 1009.1 | |
| 20260505170502 | 0 | 37 | 0.0 | 4.0 | 0.03 | 0.55 | 0.55 | 87 | 1009.2 |
| 20260505170005 | 50 | 38 | 2.0 | 5.0 | 0.03 | 0.54 | 0.54 | 87 | 1009.0 |
| 20260505165502 | 50 | 46 | 3.0 | 5.0 | 0.03 | 0.54 | 0.54 | 86 | 1008.7 |
| 20260505165000 | 50 | 30 | 2.0 | 7.0 | 0.03 | 0.54 | 0.54 | 85 | 1009.1 |
| 20260505164501 | 50 | 352 | 5.0 | 7.0 | 0.02 | 0.53 | 0.53 | 85 | 1008.8 |
| 20260505164002 | 50 | 44 | 3.0 | 5.0 | 0.02 | 0.53 | 0.53 | 84 | 1009.0 |
| 20260505163503 | 50 | 356 | 2.0 | 6.0 | 0.02 | 0.53 | 0.53 | 85 | 1009.3 |
| 20260505163001 | 51 | 39 | 2.0 | 6.0 | 0.01 | 0.52 | 0.52 | 84 | 1009.3 |
| 20260505162502 | 51 | 39 | 4.0 | 7.0 | 0.01 | 0.52 | 0.52 | 83 | 1009.1 |
| 20260505162001 | 51 | 23 | 3.0 | 7.0 | 0.01 | 0.52 | 0.52 | 83 | 1009.0 |
| 20260505161502 | 51 | 348 | 3.0 | 7.0 | 0.02 | 0.52 | 0.52 | 83 | 1009.3 |
| 20260505161002 | 51 | 15 | 4.0 | 7.0 | 0.02 | 0.52 | 0.52 | 84 | 1009.3 |
| 20260505153001 | 52 | 339 | 5.0 | 10.0 | 0.06 | 0.51 | 0.51 | 88 | 1008.9 |
| 20260505152502 | 53 | 335 | 4.0 | 8.0 | 0.06 | 0.51 | 0.51 | 88 | 1009.2 |
| 20260505152001 | 53 | 14 | 5.0 | 12.0 | 0.07 | 0.51 | 0.51 | 87 | 1009.1 |
| 20260505151501 | 55 | 312 | 7.0 | 12.0 | 0.06 | 0.50 | 0.50 | 88 | 1009.2 |
| 20260505151001 | 55 | 290 | 6.0 | 9.0 | 0.07 | 0.50 | 0.50 | 90 | 1009.2 |
| 20260505150503 | 55 | 300 | 6.0 | 9.0 | 0.06 | 0.49 | 0.49 | 90 | 1009.0 |
| 20260505125002 | 0 | 217 | 5.0 | 9.0 | 0.00 | 0.42 | 0.42 | 1007.5 | |
| 20260505124501 | 0 | 204 | 5.0 | 10.0 | 0.00 | 0.42 | 0.42 | 1007.6 | |
| 20260505124002 | 0 | 223 | 5.0 | 10.0 | 0.00 | 0.42 | 0.42 | 1007.5 | |
| 20260505123501 | 0 | 227 | 4.0 | 11.0 | 0.00 | 0.42 | 0.42 | 1007.6 | |
| 20260505123001 | 0 | 239 | 5.0 | 11.0 | 0.00 | 0.42 | 0.42 | 1 | 1007.6 |
| 20260505122501 | 56 | 243 | 7.0 | 10.0 | 0.00 | 0.42 | 0.42 | 1007.5 | |
| 20260505122001 | 56 | 249 | 5.0 | 10.0 | 0.00 | 0.42 | 0.42 | 1007.5 | |
| 20260505121502 | 56 | 230 | 5.0 | 12.0 | 0.00 | 0.42 | 0.42 | 91 | 1007.3 |
| 20260505121002 | 56 | 229 | 7.0 | 12.0 | 0.00 | 0.42 | 0.42 | 91 | 1007.3 |
| 20260505120501 | 0 | 250 | 5.0 | 9.0 | 0.00 | 0.42 | 0.42 | 91 | 1007.2 |
| 20260505120003 | 0 | 195 | 4.0 | 8.0 | 0.00 | 0.42 | 0.42 | 91 | 1007.1 |
| 20260505115502 | 56 | 212 | 5.0 | 7.0 | 0.00 | 0.42 | 0.42 | 91 | 1007.0 |
| 20260505114500 | 55 | 160 | 3.0 | 6.0 | 0.00 | 0.42 | 0.42 | 91 | 1006.7 |
| 20260505114002 | 55 | 166 | 2.0 | 7.0 | 0.00 | 0.42 | 0.42 | 91 | 1006.6 |
| 20260505113000 | 55 | 195 | 1.0 | 6.0 | 0.00 | 0.42 | 0.42 | 91 | 1006.6 |
| 20260505112500 | 55 | 250 | 3.0 | 7.0 | 0.00 | 0.42 | 0.42 | 91 | 1006.4 |
| 20260505112001 | 0 | 243 | 3.0 | 7.0 | 0.00 | 0.42 | 0.42 | 91 | 1006.8 |
| 20260505111503 | 0 | 223 | 4.0 | 7.0 | 0.00 | 0.42 | 0.42 | 1006.7 | |
| 20260505111000 | 0 | 223 | 4.0 | 8.0 | 0.00 | 0.42 | 0.42 | 1006.6 | |
| 20260505110501 | 55 | 199 | 2.0 | 8.0 | 0.00 | 0.42 | 0.42 | 91 | 1006.5 |
| 20260505101500 | 55 | 255 | 5.0 | 9.0 | 0.00 | 0.42 | 0.42 | 90 | 1006.1 |
| 20260505100959 | 55 | 212 | 5.0 | 11.0 | 0.00 | 0.42 | 0.42 | 90 | 1006.3 |
| 20260505100501 | 55 | 207 | 7.0 | 11.0 | 0.00 | 0.42 | 0.42 | 90 | 1005.9 |
| 20260505100005 | 55 | 244 | 5.0 | 11.0 | 0.00 | 0.42 | 0.42 | 1 | 1005.8 |
| 20260505095500 | 0 | 213 | 6.0 | 11.0 | 0.00 | 0.42 | 0.42 | 1005.6 | |
| 20260505095000 | 55 | 219 | 6.0 | 11.0 | 0.00 | 0.42 | 0.42 | 1005.6 | |
| 20260505094500 | 0 | 243 | 6.0 | 11.0 | 0.00 | 0.42 | 0.42 | 90 | 1005.5 |
| 20260505094000 | 55 | 173 | 5.0 | 10.0 | 0.00 | 0.42 | 0.42 | 90 | 1005.5 |
| 20260505093500 | 55 | 214 | 5.0 | 11.0 | 0.00 | 0.42 | 0.42 | 90 | 1005.4 |
| 20260505092501 | 55 | 221 | 6.0 | 9.0 | 0.00 | 0.42 | 0.42 | 89 | 1005.1 |
| 20260505092000 | 56 | 198 | 6.0 | 11.0 | 0.00 | 0.42 | 0.42 | 89 | 1005.2 |
| 20260505091459 | 56 | 203 | 7.0 | 11.0 | 0.00 | 0.42 | 0.42 | 89 | 1005.1 |
| 20260505090959 | 56 | 202 | 6.0 | 11.0 | 0.00 | 0.42 | 0.42 | 89 | 1004.9 |
| 20260505090459 | 55 | 214 | 4.0 | 7.0 | 0.00 | 0.42 | 0.42 | 89 | 1004.8 |
| 20260505090004 | 55 | 210 | 4.0 | 8.0 | 0.00 | 0.42 | 0.42 | 90 | 1004.6 |
| 20260505085500 | 56 | 212 | 5.0 | 12.0 | 0.00 | 0.42 | 0.42 | 1004.5 | |
| 20260505084959 | 56 | 228 | 5.0 | 12.0 | 0.00 | 0.42 | 0.42 | 89 | 1004.4 |
| 20260505084000 | 56 | 167 | 4.0 | 10.0 | 0.01 | 0.42 | 0.42 | 86 | 1004.3 |
| 20260505083500 | 0 | 231 | 5.0 | 11.0 | 0.02 | 0.42 | 0.42 | 86 | 1004.3 |
| 20260505082959 | 56 | 235 | 6.0 | 11.0 | 0.03 | 0.42 | 0.42 | 88 | 1004.2 |
| 20260505082500 | 0 | 160 | 4.0 | 10.0 | 0.05 | 0.42 | 0.42 | 89 | 1004.1 |
| 20260505081459 | 55 | 132 | 10.0 | 17.0 | 0.09 | 0.42 | 0.42 | 90 | 1003.2 |
| 20260505081003 | 55 | 140 | 7.0 | 16.0 | 0.12 | 0.42 | 0.42 | 91 | 1004.5 |
| 20260505080459 | 55 | 179 | 9.0 | 16.0 | 0.14 | 0.42 | 0.42 | 91 | 1004.7 |
| 20260505080004 | 55 | 139 | 10.0 | 16.0 | 0.16 | 0.42 | 0.42 | 91 | 1005.0 |
| 20260505075001 | 0 | 186 | 9.0 | 18.0 | 0.23 | 0.42 | 0.42 | 91 | 1004.7 |
| 20260505074500 | 0 | 136 | 10.0 | 18.0 | 0.26 | 0.42 | 0.42 | 91 | 1004.6 |
| 20260505073500 | 56 | 233 | 6.0 | 12.0 | 0.27 | 0.40 | 0.40 | 91 | 1006.8 |
| 20260505073000 | 0 | 241 | 6.0 | 16.0 | 0.26 | 0.38 | 0.38 | 91 | 1006.4 |
| 20260505071459 | 0 | 184 | 7.0 | 10.0 | 0.21 | 0.32 | 0.32 | 1005.7 | |
| 20260505071000 | 0 | 217 | 6.0 | 9.0 | 0.19 | 0.30 | 0.30 | 1005.9 | |
| 20260505070459 | 55 | 181 | 4.0 | 6.0 | 0.18 | 0.28 | 0.28 | 1 | 1006.1 |
| 20260505070004 | 55 | 186 | 2.0 | 5.0 | 0.16 | 0.25 | 0.25 | 91 | 1006.1 |
| 20260505065500 | 55 | 136 | 2.0 | 5.0 | 0.13 | 0.22 | 0.22 | 92 | 1006.2 |
| 20260505065001 | 55 | 158 | 1.0 | 3.0 | 0.09 | 0.18 | 0.18 | 1006.4 | |
| 20260505064501 | 55 | 206 | 2.0 | 3.0 | 0.06 | 0.15 | 0.15 | 1006.7 | |
| 20260505064000 | 0 | 141 | 2.0 | 4.0 | 0.07 | 0.14 | 0.14 | 92 | 1006.6 |
| 20260505063459 | 0 | 208 | 2.0 | 4.0 | 0.06 | 0.13 | 0.13 | 1006.7 | |
| 20260505063001 | 0 | 173 | 3.0 | 4.0 | 0.06 | 0.12 | 0.12 | 1006.6 | |
| 20260505062501 | 56 | 171 | 3.0 | 4.0 | 0.06 | 0.11 | 0.11 | 1006.7 | |
| 20260505062001 | 0 | 212 | 3.0 | 5.0 | 0.08 | 0.11 | 0.11 | 1006.9 | |
| 20260505061000 | 56 | 221 | 2.0 | 3.0 | 0.11 | 0.11 | 0.11 | 90 | 1007.2 |
| 20260505060501 | 56 | 262 | 2.0 | 3.0 | 0.10 | 0.10 | 0.10 | 89 | 1007.1 |
| 20260505060003 | 0 | 271 | 2.0 | 3.0 | 0.09 | 0.09 | 0.09 | 1 | 1007.0 |
| 20260505055459 | 0 | 241 | 2.0 | 4.0 | 0.09 | 0.09 | 0.09 | 1007.0 | |
| 20260505055000 | 56 | 248 | 2.0 | 4.0 | 0.09 | 0.09 | 0.09 | 1007.0 | |
| 20260505054501 | 56 | 252 | 2.0 | 5.0 | 0.08 | 0.08 | 0.08 | 1007.1 | |
| 20260505053959 | 0 | 232 | 3.0 | 6.0 | 0.07 | 0.07 | 0.07 | 1007.3 | |
| 20260505053500 | 0 | 274 | 3.0 | 9.0 | 0.07 | 0.07 | 0.07 | 1007.3 | |
| 20260505052500 | 0 | 292 | 6.0 | 11.0 | 0.04 | 0.04 | 0.04 | 1007.2 | |
| 20260505051959 | 0 | 326 | 7.0 | 15.0 | 0.03 | 0.03 | 0.03 | 82 | 1007.2 |
| 20260505051459 | 60 | 327 | 9.0 | 15.0 | 0.01 | 0.01 | 0.01 | 79 | 1007.0 |
| 20260505041503 | 67 | 194 | 7.0 | 16.0 | 0.00 | 0.00 | 0.00 | 1002.7 | |
| 20260505041002 | 67 | 195 | 10.0 | 16.0 | 0.00 | 0.00 | 0.00 | 100 | 1002.7 |
| 20260505040502 | 67 | 152 | 9.0 | 16.0 | 0.00 | 0.00 | 0.00 | 1002.7 | |
| 20260505040006 | 0 | 204 | 9.0 | 16.0 | 0.00 | 0.00 | 0.00 | 1002.7 | |
| 20260505035502 | 67 | 216 | 8.0 | 14.0 | 0.00 | 0.00 | 0.00 | 1002.8 | |
| 20260505035002 | 67 | 167 | 6.0 | 13.0 | 0.00 | 0.00 | 0.00 | 54 | 1002.8 |
| 20260505034501 | 0 | 204 | 6.0 | 12.0 | 0.00 | 0.00 | 0.00 | 1002.8 | |
| 20260505034002 | 67 | 207 | 6.0 | 14.0 | 0.00 | 0.00 | 0.00 | 54 | 1002.8 |
| 20260505033502 | 67 | 194 | 9.0 | 14.0 | 0.00 | 0.00 | 0.00 | 54 | 1002.8 |
| 20260505033002 | 67 | 233 | 9.0 | 14.0 | 0.00 | 0.00 | 0.00 | 54 | 1002.9 |
| 20260505032501 | 0 | 233 | 7.0 | 13.0 | 0.00 | 0.00 | 0.00 | 1003.0 | |
| 20260505032001 | 68 | 175 | 6.0 | 13.0 | 0.00 | 0.00 | 0.00 | 55 | 1003.0 |
| 20260505030501 | 0 | 195 | 8.0 | 14.0 | 0.00 | 0.00 | 0.00 | 1003.1 | |
| 20260505030007 | 0 | 194 | 7.0 | 16.0 | 0.00 | 0.00 | 0.00 | 1003.2 | |
| 20260505025502 | 0 | 210 | 8.0 | 12.0 | 0.00 | 0.00 | 0.00 | 1003.2 | |
| 20260505025001 | 0 | 135 | 7.0 | 11.0 | 0.00 | 0.00 | 0.00 | 1003.2 |